�������l�o���
Date,Time,MP-1(��Sv/h),MP-2(��Sv/h),MP-3(��Sv/h),MP-4(��Sv/h),MP-5(��Sv/h),MP-6(��Sv/h),MP-7(��Sv/h),MP-8(��Sv/h),����,����(m/s),���J
2018/02/02,00:00,0.842,1.398,0.876,1.593,1.121,0.469,0.842,0.821,�k�k��,7.0,��
2018/02/02,00:10,0.842,1.396,0.877,1.595,1.121,0.470,0.844,0.820,�k�k��,7.2,��
2018/02/02,00:20,0.842,1.402,0.877,1.593,1.120,0.468,0.844,0.821,�k�k��,7.4,��
2018/02/02,00:30,0.841,1.401,0.878,1.597,1.121,0.469,0.841,0.820,�k�k��,7.0,��
2018/02/02,00:40,0.842,1.397,0.878,1.592,1.123,0.469,0.843,0.822,�k�k��,7.4,��
2018/02/02,00:50,0.842,1.397,0.879,1.595,1.123,0.471,0.841,0.821,�k�k��,6.7,��
2018/02/02,01:00,0.843,1.398,0.876,1.595,1.121,0.468,0.844,0.822,�k�k��,7.3,��
2018/02/02,01:10,0.843,1.395,0.877,1.594,1.123,0.470,0.842,0.822,�k�k��,5.9,��
2018/02/02,01:20,0.842,1.399,0.877,1.594,1.123,0.471,0.842,0.821,�k�k��,6.4,��
2018/02/02,01:30,0.841,1.398,0.877,1.596,1.121,0.469,0.843,0.822,�k�k��,6.3,��
2018/02/02,01:40,0.844,1.399,0.877,1.597,1.121,0.470,0.844,0.821,�k�k��,6.9,��
2018/02/02,01:50,0.841,1.400,0.877,1.595,1.123,0.470,0.843,0.821,�k�k��,7.2,��
2018/02/02,02:00,0.843,1.400,0.880,1.598,1.122,0.470,0.842,0.820,�k�k��,7.2,��
2018/02/02,02:10,0.842,1.398,0.880,1.594,1.122,0.471,0.841,0.823,�k�k��,7.6,��
2018/02/02,02:20,0.840,1.399,0.877,1.594,1.121,0.472,0.844,0.821,�k�k��,7.8,��
2018/02/02,02:30,0.842,1.399,0.880,1.598,1.122,0.470,0.845,0.823,�k�k��,7.5,��
2018/02/02,02:40,0.843,1.398,0.879,1.595,1.124,0.471,0.843,0.821,�k�k��,7.2,��
2018/02/02,02:50,0.842,1.400,0.876,1.596,1.125,0.472,0.844,0.821,�k�k��,8.1,��
2018/02/02,03:00,0.842,1.397,0.878,1.597,1.122,0.469,0.844,0.823,�k�k��,8.0,��
2018/02/02,03:10,0.841,1.396,0.880,1.596,1.122,0.470,0.844,0.822,�k�k��,7.4,��
2018/02/02,03:20,0.843,1.400,0.879,1.596,1.121,0.471,0.843,0.821,�k�k��,7.4,��
2018/02/02,03:30,0.841,1.399,0.879,1.593,1.122,0.469,0.842,0.822,�k�k��,7.6,��
2018/02/02,03:40,0.841,1.397,0.877,1.597,1.124,0.469,0.843,0.822,�k�k��,6.6,��
2018/02/02,03:50,0.841,1.403,0.877,1.597,1.121,0.470,0.844,0.822,�k�k��,7.4,��
2018/02/02,04:00,0.843,1.399,0.880,1.598,1.124,0.470,0.844,0.823,�k�k��,6.6,�L
2018/02/02,04:10,0.841,1.399,0.879,1.598,1.122,0.470,0.845,0.823,�k�k��,6.7,�L
2018/02/02,04:20,0.842,1.398,0.880,1.598,1.123,0.472,0.844,0.822,�k�k��,6.1,�L
2018/02/02,04:30,0.843,1.399,0.884,1.598,1.126,0.471,0.847,0.822,�k�k��,7.0,�L
2018/02/02,04:40,0.842,1.399,0.880,1.600,1.122,0.472,0.843,0.824,�k�k��,7.8,�L
2018/02/02,04:50,0.843,1.400,0.879,1.596,1.123,0.473,0.847,0.823,�k�k��,6.7,�L
2018/02/02,05:00,0.843,1.401,0.880,1.599,1.124,0.471,0.846,0.823,�k�k��,8.0,�L
2018/02/02,05:10,0.843,1.399,0.879,1.599,1.122,0.471,0.844,0.823,�k�k��,6.9,�L
2018/02/02,05:20,0.842,1.399,0.880,1.598,1.124,0.472,0.843,0.822,�k�k��,6.0,�L
2018/02/02,05:30,0.840,1.398,0.878,1.595,1.121,0.470,0.843,0.822,�k��,5.9,�L
2018/02/02,05:40,0.842,1.397,0.879,1.600,1.121,0.470,0.842,0.822,�k��,5.3,�L
2018/02/02,05:50,0.841,1.397,0.877,1.596,1.123,0.470,0.844,0.820,�k��,6.5,�L
2018/02/02,06:00,0.841,1.395,0.878,1.595,1.121,0.471,0.843,0.823,�k��,5.4,�L
2018/02/02,06:10,0.840,1.394,0.878,1.596,1.120,0.469,0.842,0.822,�k�k��,4.8,�L
2018/02/02,06:20,0.840,1.394,0.877,1.596,1.118,0.472,0.841,0.821,�k�k��,4.5,�L
2018/02/02,06:30,0.840,1.390,0.878,1.594,1.117,0.472,0.841,0.820,�k��,4.3,�L
2018/02/02,06:40,0.838,1.390,0.875,1.590,1.115,0.471,0.840,0.821,�k��,4.1,�L
2018/02/02,06:50,0.836,1.389,0.876,1.591,1.117,0.471,0.841,0.818,�k��,4.8,�L
2018/02/02,07:00,0.840,1.388,0.875,1.590,1.113,0.470,0.841,0.819,�k��,4.3,��
2018/02/02,07:10,0.837,1.389,0.872,1.589,1.111,0.468,0.840,0.820,���k��,4.4,��
2018/02/02,07:20,0.836,1.388,0.875,1.589,1.111,0.469,0.841,0.819,���k��,2.6,��
2018/02/02,07:30,0.836,1.384,0.874,1.592,1.114,0.470,0.839,0.818,�k�k��,2.0,�L
2018/02/02,07:40,0.838,1.386,0.874,1.589,1.111,0.470,0.840,0.820,�k,4.0,�L
2018/02/02,07:50,0.836,1.385,0.872,1.591,1.112,0.470,0.839,0.819,�k�k��,4.7,�L
2018/02/02,08:00,0.838,1.387,0.872,1.591,1.111,0.470,0.839,0.820,�k�k��,5.2,�L
2018/02/02,08:10,0.839,1.385,0.872,1.588,1.112,0.469,0.840,0.820,�k�k��,5.6,�L
2018/02/02,08:20,0.838,1.385,0.871,1.589,1.113,0.470,0.842,0.818,�k�k��,5.2,�L
2018/02/02,08:30,0.837,1.386,0.872,1.588,1.112,0.468,0.840,0.820,�k�k��,5.8,��
2018/02/02,08:40,0.835,1.385,0.872,1.588,1.111,0.468,0.840,0.819,�k�k��,5.9,��
2018/02/02,08:50,0.838,1.384,0.868,1.589,1.110,0.468,0.841,0.819,�k�k��,5.8,��
2018/02/02,09:00,0.837,1.383,0.872,1.589,1.112,0.469,0.840,0.819,�k�k��,5.1,��
2018/02/02,09:10,0.838,1.384,0.873,1.590,1.112,0.471,0.842,0.818,�k�k��,7.5,��
2018/02/02,09:20,0.837,1.387,0.871,1.588,1.111,0.468,0.840,0.819,�k�k��,6.9,��
2018/02/02,09:30,0.838,1.386,0.872,1.588,1.113,0.469,0.839,0.821,�k�k��,6.4,��
2018/02/02,09:40,0.838,1.387,0.875,1.590,1.114,0.469,0.840,0.820,�k�k��,6.8,��
2018/02/02,09:50,0.837,1.387,0.874,1.590,1.113,0.468,0.842,0.820,�k�k��,6.4,��
2018/02/02,10:00,0.839,1.383,0.872,1.591,1.115,0.467,0.841,0.821,�k�k��,6.7,��
2018/02/02,10:10,0.836,1.387,0.873,1.588,1.116,0.468,0.839,0.818,�k�k��,6.1,��
2018/02/02,10:20,0.838,1.387,0.872,1.589,1.115,0.469,0.841,0.821,�k�k��,5.8,��
2018/02/02,10:30,0.837,1.386,0.875,1.588,1.115,0.470,0.841,0.821,�k�k��,5.1,��
2018/02/02,10:40,0.838,1.387,0.875,1.590,1.118,0.470,-,0.819,�k�k��,6.4,��
2018/02/02,10:50,0.839,1.391,0.878,1.592,1.114,0.468,-,0.821,�k�k��,6.7,��
2018/02/02,11:00,0.836,1.388,0.875,1.591,1.114,0.471,-,0.822,�k�k��,6.4,��
2018/02/02,11:10,0.835,1.389,0.878,1.591,1.117,0.469,-,0.822,�k�k��,6.9,��
2018/02/02,11:20,0.833,1.389,0.877,1.592,1.118,0.469,-,0.821,�k�k��,5.5,��
2018/02/02,11:30,0.832,1.395,0.877,1.594,1.118,0.469,-,0.822,�k�k��,6.5,��
2018/02/02,11:40,0.842,1.396,0.877,1.594,1.119,0.472,-,0.822,�k�k��,5.8,��
2018/02/02,11:50,0.841,1.393,0.879,1.595,1.120,0.468,-,0.820,�k�k��,5.9,��
2018/02/02,12:00,0.841,1.393,0.879,1.592,1.118,0.470,-,0.821,�k�k��,5.3,��
2018/02/02,12:10,0.844,1.395,0.879,1.593,1.119,0.470,-,0.821,�k�k��,5.5,��
2018/02/02,12:20,0.839,1.398,0.879,1.595,1.120,0.470,-,0.821,�k�k��,6.7,��
2018/02/02,12:30,0.840,1.396,0.877,1.597,1.121,0.471,-,0.821,�k�k��,5.5,��
2018/02/02,12:40,0.839,1.393,0.878,1.596,1.121,0.470,-,0.821,�k�k��,4.7,��
2018/02/02,12:50,0.841,1.394,0.879,1.595,1.119,0.471,-,0.821,�k�k��,5.2,��
2018/02/02,13:00,0.842,1.394,0.878,1.597,1.121,0.471,-,0.820,�k�k��,5.3,��
2018/02/02,13:10,0.841,1.395,0.878,1.594,1.122,0.470,-,0.822,�k�k��,4.9,��
2018/02/02,13:20,0.844,1.395,0.881,1.597,1.120,0.471,-,0.821,�k�k��,5.2,��
2018/02/02,13:30,0.844,1.392,0.880,1.598,1.120,0.470,-,0.821,�k�k��,5.0,��
2018/02/02,13:40,0.843,1.393,0.879,1.595,1.124,0.472,-,0.821,�k�k��,4.9,��
2018/02/02,13:50,0.844,1.398,0.879,1.597,1.121,0.470,-,0.822,�k,4.5,��
2018/02/02,14:00,0.844,1.397,0.878,1.598,1.123,0.469,-,0.820,�k,4.8,��
2018/02/02,14:10,0.845,1.398,0.878,1.597,1.123,0.472,-,0.823,�k,4.7,��
2018/02/02,14:20,0.844,1.398,0.878,1.598,1.124,0.472,-,0.821,�k�k��,3.9,��
2018/02/02,14:30,0.846,1.397,0.881,1.600,1.123,0.471,-,0.822,�k,4.3,��
2018/02/02,14:40,0.845,1.395,0.880,1.603,1.124,0.473,-,0.821,�k,4.2,��
2018/02/02,14:50,0.845,1.399,0.881,1.600,1.123,0.472,-,0.823,�k�k��,4.3,��
2018/02/02,15:00,0.845,1.400,0.881,1.600,1.124,0.472,-,0.822,�k,5.1,��
2018/02/02,15:10,0.844,1.400,0.881,1.601,1.124,0.472,-,0.822,�k,4.9,��
2018/02/02,15:20,0.847,1.398,0.882,1.599,1.123,0.472,0.843,0.822,�k,4.9,��
2018/02/02,15:30,0.844,1.402,0.881,1.601,1.123,0.472,0.844,0.821,�k,5.1,��
2018/02/02,15:40,0.845,1.402,0.882,1.601,1.124,0.472,0.848,0.823,�k,4.9,��
2018/02/02,15:50,0.846,1.402,0.882,1.601,1.126,0.473,0.843,0.821,�k,5.7,��
2018/02/02,16:00,0.845,1.401,0.882,1.602,1.124,0.472,0.844,0.822,�k,5.1,��
2018/02/02,16:10,0.845,1.403,0.881,1.598,1.125,0.473,0.845,0.822,�k,5.7,��
2018/02/02,16:20,0.844,1.404,0.883,1.605,1.127,0.472,0.846,0.822,�k,5.9,��
2018/02/02,16:30,0.844,1.403,0.882,1.600,1.124,0.472,0.844,0.822,�k,4.8,��
2018/02/02,16:40,0.844,1.404,0.881,1.601,1.124,0.475,0.846,0.820,�k,5.2,��
2018/02/02,16:50,0.845,1.404,0.880,1.600,1.126,0.473,0.844,0.822,�k,5.1,��
2018/02/02,17:00,0.843,1.404,0.880,1.600,1.123,0.473,0.845,0.822,�k,4.8,��
2018/02/02,17:10,0.844,1.405,0.880,1.599,1.124,0.473,0.844,0.820,�k,4.6,��
2018/02/02,17:20,0.844,1.405,0.881,1.600,1.127,0.474,0.844,0.822,�k,4.7,��
2018/02/02,17:30,0.843,1.403,0.880,1.599,1.126,0.472,0.844,0.821,�k,5.2,��
2018/02/02,17:40,0.845,1.401,0.881,1.600,1.124,0.473,0.842,0.821,�k,4.7,��
2018/02/02,17:50,0.847,1.405,0.879,1.601,1.123,0.473,0.844,0.822,�k�k��,4.6,��
2018/02/02,18:00,0.845,1.402,0.881,1.600,1.125,0.472,0.841,0.820,�k�k��,4.1,��
2018/02/02,18:10,0.843,1.404,0.878,1.598,1.124,0.471,0.841,0.819,�k��,4.3,��
2018/02/02,18:20,0.842,1.401,0.881,1.601,1.125,0.472,0.844,0.822,�k�k��,4.2,��
2018/02/02,18:30,0.843,1.404,0.880,1.600,1.125,0.471,0.844,0.821,�k��,4.5,��
2018/02/02,18:40,0.844,1.403,0.880,1.600,1.125,0.471,0.845,0.820,�k�k��,4.7,��
2018/02/02,18:50,0.845,1.402,0.879,1.603,1.124,0.471,0.843,0.820,�k�k��,5.3,��
2018/02/02,19:00,0.846,1.405,0.878,1.602,1.126,0.471,0.844,0.822,�k�k��,4.6,��
2018/02/02,19:10,0.844,1.401,0.879,1.603,1.122,0.474,0.844,0.822,�k�k��,4.9,��
2018/02/02,19:20,0.844,1.401,0.879,1.602,1.125,0.473,0.845,0.822,�k�k��,5.5,��
2018/02/02,19:30,0.844,1.404,0.880,1.603,1.123,0.471,0.844,0.821,�k�k��,5.7,��
2018/02/02,19:40,0.843,1.404,0.880,1.601,1.125,0.472,0.842,0.822,�k�k��,5.9,��
2018/02/02,19:50,0.845,1.402,0.881,1.602,1.125,0.471,0.842,0.821,�k�k��,6.3,��
2018/02/02,20:00,0.843,1.403,0.881,1.602,1.126,0.472,0.842,0.820,�k��,5.5,��
2018/02/02,20:10,0.845,1.404,0.881,1.601,1.127,0.471,0.842,0.822,�k��,5.3,��
2018/02/02,20:20,0.843,1.400,0.882,1.605,1.125,0.472,0.844,0.821,�k��,4.9,��
2018/02/02,20:30,0.844,1.404,0.881,1.603,1.126,0.473,0.844,0.821,�k��,5.3,��
2018/02/02,20:40,0.847,1.404,0.879,1.602,1.124,0.473,0.844,0.820,�k��,5.3,��
2018/02/02,20:50,0.843,1.402,0.880,1.602,1.124,0.473,0.843,0.820,�k��,5.7,��
2018/02/02,21:00,0.846,1.403,0.880,1.600,1.125,0.471,0.844,0.824,�k��,5.6,��
2018/02/02,21:10,0.844,1.404,0.881,1.602,1.125,0.473,0.845,0.823,�k��,6.0,��
2018/02/02,21:20,0.844,1.403,0.876,1.603,1.124,0.471,0.845,0.821,�k��,6.4,��
2018/02/02,21:30,0.846,1.402,0.882,1.603,1.123,0.474,0.845,0.823,�k��,5.8,��
2018/02/02,21:40,0.845,1.402,0.879,1.605,1.123,0.474,0.843,0.821,�k��,5.8,��
2018/02/02,21:50,0.845,1.401,0.881,1.603,1.123,0.473,0.844,0.821,�k��,5.2,��
2018/02/02,22:00,0.843,1.403,0.881,1.603,1.122,0.473,0.844,0.822,�k��,5.6,��
2018/02/02,22:10,0.844,1.402,0.881,1.602,1.123,0.474,0.845,0.821,�k��,5.6,��
2018/02/02,22:20,0.844,1.402,0.880,1.602,1.121,0.472,0.843,0.821,�k��,5.8,��
2018/02/02,22:30,0.844,1.400,0.880,1.601,1.123,0.472,0.843,0.821,���k��,5.0,��
2018/02/02,22:40,0.844,1.400,0.882,1.603,1.123,0.472,0.844,0.821,���k��,4.9,��
2018/02/02,22:50,0.843,1.402,0.879,1.605,1.121,0.472,0.843,0.822,���k��,4.7,��
2018/02/02,23:00,0.844,1.402,0.882,1.602,1.122,0.472,0.844,0.821,���k��,4.9,��
2018/02/02,23:10,0.844,1.400,0.881,1.604,1.122,0.474,0.844,0.824,�k��,4.8,��
2018/02/02,23:20,0.843,1.403,0.880,1.603,1.123,0.473,0.846,0.821,�k��,5.0,��
2018/02/02,23:30,0.844,1.403,0.881,1.606,1.124,0.473,0.846,0.821,�k��,5.5,��
2018/02/02,23:40,0.843,1.402,0.880,1.605,1.122,0.472,0.844,0.822,�k��,5.2,��
2018/02/02,23:50,0.844,1.403,0.881,1.604,1.123,0.473,0.843,0.821,�k��,5.1,��
